Weather History for KVSF - April, 2013

Change the Weather History Date:

Monday, April 1, 2013

  Actual Average Record
Temperature  
Mean Temperature 40 °F 38 °F  
Max Temperature 51 °F 49 °F 64 °F (1999)
Min Temperature 29 °F 27 °F 15 °F (2003)
Degree Days  
Heating Degree Days 25 27  
Month to date heating degree days 25 27  
Since 1 July heating degree days 5907 6507  
Cooling Degree Days 0 0  
Month to date cooling degree days 0 0  
Year to date cooling degree days 0 0  
Moisture  
Dew Point 30 °F    
Average Humidity 62    
Maximum Humidity 92    
Minimum Humidity 32    
Precipitation  
Precipitation 0.16 in 0.15 in 0.51 in (2002)
Month to date precipitation 0.16 0.15  
Year to date precipitation 5.31 9.06  
Sea Level Pressure  
Sea Level Pressure 29.66 in    
Wind  
Wind Speed 7 mph (WSW)    
Max Wind Speed 25 mph    
Max Gust Speed 33 mph    
Visibility 9 miles    
Events Rain    
T = Trace of Precipitation, MM = Missing Value Source: NWS Daily Summary

Daily Weather History Graph

Daily Weather History Graph

Search for Another Location

Airport or City:

Trip Planner

Search our weather history database for the weather conditions in past years. The results will help you decide how hot, cold, wet, or windy it might be!

Date:

Astronomy

Apr. 01, 2013 Rise Set
Actual Time 6:31 AM EDT 7:16 PM EDT
Civil Twilight 6:02 AM EDT 7:45 PM EDT
Nautical Twilight 5:28 AM EDT 8:20 PM EDT
Astronomical Twilight 4:53 AM EDT 8:55 PM EDT
Moon 12:29 AM EDT (4/1) 10:07 AM EDT (4/1)
Length of Visible Light 13h 43m
Length of Day
12h 45m
Waning Gibbous, 67% of the Moon is Illuminated
Apr 1
Waning Gibbous
Apr 3
Last Quarter
Apr 10
New
Apr 18
First Quarter
Apr 25
Full

Hourly Weather History & Observations

Time (EDT) Temp. Windchill Dew Point Humidity Pressure Visibility Wind Dir Wind Speed Gust Speed Precip Events Conditions
12:54 AM 39.0 °F 36.8 °F 36.0 °F 89% 29.74 in 5.0 mi North 3.5 mph - 0.13 in Rain Light Rain
1:27 AM 39.2 °F - 37.4 °F 93% 29.71 in 7.0 mi Calm Calm - 0.04 in Rain Light Rain
1:34 AM 39.2 °F - 37.4 °F 93% 29.71 in 6.0 mi Calm Calm - 0.05 in Rain Light Rain
1:54 AM 39.0 °F 36.8 °F 36.0 °F 89% 29.71 in 7.0 mi NNE 3.5 mph - 0.06 in Rain Light Rain
3:24 AM 37.4 °F - 35.6 °F 93% 29.66 in 9.0 mi Calm Calm - 0.01 in Rain Light Rain
3:54 AM 37.0 °F - 35.1 °F 93% 29.65 in 9.0 mi Calm Calm - 0.02 in Rain Light Rain
4:51 AM 35.6 °F 32.8 °F 33.8 °F 93% 29.62 in 7.0 mi ENE 3.5 mph - 0.00 in   Overcast
5:54 AM 36.0 °F 33.3 °F 33.1 °F 89% 29.64 in 10.0 mi NE 3.5 mph - N/A   Overcast
6:37 AM 35.6 °F - 33.8 °F 93% 29.64 in 5.0 mi Calm Calm - N/A   Overcast
6:49 AM 35.6 °F - 33.8 °F 93% 29.64 in 6.0 mi Calm Calm - N/A   Overcast
6:54 AM 35.1 °F - 33.1 °F 92% 29.65 in 7.0 mi Calm Calm - N/A   Overcast
7:25 AM 35.6 °F - 33.8 °F 93% 29.64 in 7.0 mi Calm Calm - N/A   Overcast
7:34 AM 35.6 °F - 33.8 °F 93% 29.64 in 7.0 mi Calm Calm - N/A   Overcast
7:54 AM 36.0 °F - 34.0 °F 93% 29.65 in 7.0 mi Calm Calm - N/A   Overcast
8:02 AM 35.6 °F - 33.8 °F 93% 29.63 in 9.0 mi Calm Calm - N/A   Overcast
8:17 AM 35.6 °F - 33.8 °F 93% 29.64 in 9.0 mi Calm Calm - N/A   Overcast
9:43 AM 39.2 °F - 37.4 °F 93% 29.59 in 10.0 mi Calm Calm - N/A   Overcast
9:54 AM 41.0 °F - 36.0 °F 82% 29.60 in 10.0 mi Calm Calm - N/A   Overcast
10:43 AM 42.8 °F 41.1 °F 37.4 °F 81% 29.58 in 10.0 mi SSE 3.5 mph - N/A   Overcast
10:54 AM 44.1 °F 41.5 °F 37.9 °F 79% 29.58 in 10.0 mi SSE 4.6 mph - N/A   Overcast
11:03 AM 44.6 °F 41.4 °F 37.4 °F 76% 29.57 in 10.0 mi SSE 5.8 mph - N/A   Overcast
11:37 AM 44.6 °F 41.4 °F 39.2 °F 81% 29.56 in 10.0 mi SSE 5.8 mph - N/A   Overcast
12:54 PM 50.0 °F - 39.0 °F 66% 29.53 in 10.0 mi SE 6.9 mph - N/A   Mostly Cloudy
3:54 PM 43.0 °F 36.0 °F 28.0 °F 56% 29.62 in 10.0 mi WNW 13.8 mph 27.6 mph N/A   Overcast
4:54 PM 41.0 °F 32.5 °F 24.1 °F 51% 29.66 in 10.0 mi West 17.3 mph 27.6 mph N/A   Mostly Cloudy
5:54 PM 39.9 °F 32.1 °F 17.1 °F 40% 29.68 in 10.0 mi West 13.8 mph 25.3 mph N/A   Mostly Cloudy
7:54 PM 35.1 °F 25.5 °F 8.1 °F 33% 29.74 in 10.0 mi West 15.0 mph 25.3 mph N/A   Clear
8:54 PM 33.1 °F 24.4 °F 9.0 °F 37% 29.77 in 10.0 mi WNW 11.5 mph 23.0 mph N/A   Clear
9:54 PM 32.0 °F 24.8 °F 10.0 °F 40% 29.79 in 10.0 mi West 8.1 mph 19.6 mph N/A   Clear
10:54 PM 30.9 °F 19.8 °F 9.0 °F 40% 29.81 in 10.0 mi West 16.1 mph 24.2 mph N/A   Clear
11:54 PM 30.0 °F - 10.0 °F 43% 29.80 in 10.0 mi Calm Calm - N/A   Overcast